Location: Linton
(52.0940°N, 0.2850°E)
Time: 06:54:24
(UTC+01:00)

ISS - Pass Details

Date: 15 October 2017
Orbit: 401 x 408 km, 51.6° (Epoch: 18 October)

Event Time Altitude Azimuth Distance (km) Brightness Sun altitude
Rises 18:55:45 0° 280° (W) 2,325 1.9 -8.6°
Reaches altitude 10° 18:58:21 10° 258° (WSW) 1,463 0.6 -9.0°
Maximum altitude 19:00:28 16° 217° (SW) 1,146 -1.0 -9.4°
Drops below altitude 10° 19:02:35 10° 177° (S) 1,459 -1.0 -9.7°
Sets 19:05:11 0° 155° (SSE) 2,317 -0.2 -10.1°
